FW0772 Weather Reports


Display with metric or nautical units.
time (UTC)temp
F
wind
direction
speed
MPH
gust
MPH
rain 1hr
in
rain 24hr
in
rain mn
in
humidity
%
barometer
mb
20180718063148 65 305 1.0 8.0 0.01 0.28 0.26 100 1011.9
20180718061646 65 278 0.0 8.0 0.02 0.28 0.26 100 1011.7
20180718060139 65 292 0.0 2.0 0.02 0.27 0.25 100 1011.6
20180718054639 65 282 0.0 2.0 0.03 0.27 0.25 100 1011.6
20180718053136 65 317 0.0 5.0 0.05 0.27 0.25 100 1011.5
20180718051638 65 321 0.0 2.0 0.05 0.26 0.24 100 1011.4
20180718050133 65 288 0.0 4.0 0.03 0.24 0.23 100 1011.3
20180718044631 65 307 1.0 5.0 0.03 0.24 0.22 100 1011.1
20180718043127 65 294 0.0 2.0 0.02 0.22 0.20 100 1011.1
20180718041631 65 290 0.0 4.0 0.02 0.21 0.20 100 1011.0
20180718040128 65 281 0.0 3.0 0.03 0.21 0.20 100 1010.8
20180718034624 65 306 0.0 3.0 0.04 0.20 0.19 100 1010.8
20180718033124 65 308 0.0 3.0 0.06 0.20 0.19 100 1010.8
20180718031626 65 278 0.0 4.0 0.09 0.20 0.18 100 1010.8
20180718030126 65 336 1.0 6.0 0.11 0.18 0.17 100 1010.7
20180718024624 65 283 0.0 3.0 0.11 0.17 0.15 100 1010.8
20180718023126 65 299 0.0 3.0 0.09 0.13 0.12 100 1010.7
20180718021621 65 288 0.0 4.0 0.05 0.09 0.08 100 1010.8
20180718020119 65 296 1.0 3.0 0.03 0.07 0.06 99 1010.9
20180718014621 65 284 0.0 2.0 0.02 0.06 0.04 99 1010.8
20180718013119 65 280 1.0 3.0 0.01 0.05 0.03 99 1010.7
20180718011617 65 281 0.0 2.0 0.01 0.04 0.02 99 1010.7
20180718010114 64 293 0.0 2.0 0.01 0.04 0.02 99 1010.7
20180718004614 64 293 0.0 1.0 0.01 0.04 0.02 98 1010.6
20180718003119 64 293 0.0 1.0 0.01 0.04 0.02 98 1010.5
20180718001613 64 293 1.0 3.0 0.00 0.03 0.02 98 1010.5
20180718000117 64 293 0.0 2.0 0.01 0.03 0.02 98 1010.5
20180717234615 64 293 0.0 0.0 0.01 0.03 0.02 97 1010.6
20180717233114 64 293 0.0 2.0 0.02 0.03 0.02 96 1010.6
20180717231612 65 304 0.0 1.0 0.02 0.03 0.02 96 1010.5
20180717230106 65 304 0.0 2.0 0.01 0.02 0.01 94 1010.6
20180717224605 65 304 0.0 2.0 0.01 0.02 0.01 94 1010.7
20180717223107 65 288 0.0 2.0 0.00 0.02 0.00 93 1010.7
20180717221604 65 321 0.0 2.0 0.00 0.02 0.00 93 1010.7
20180717220102 65 284 0.0 3.0 0.00 0.02 0.00 93 1010.8
20180717214602 66 319 0.0 1.0 0.00 0.02 0.02 92 1010.7
20180717213103 66 319 0.0 1.0 0.00 0.02 0.02 91 1010.7
20180717211602 66 316 0.0 2.0 0.00 0.02 0.02 91 1010.7
20180717210100 66 349 0.0 1.0 0.00 0.02 0.02 90 1010.7
20180717204604 67 5 0.0 2.0 0.00 0.02 0.02 89 1010.8
20180717203059 67 355 1.0 2.0 0.00 0.02 0.02 90 1010.8
20180717201558 67 5 0.0 4.0 0.00 0.02 0.02 90 1010.8
20180717200058 67 309 0.0 2.0 0.00 0.02 0.02 91 1010.8
20180717194556 67 291 0.0 0.0 0.00 0.02 0.02 91 1010.9
20180717193100 67 291 0.0 1.0 0.00 0.02 0.02 91 1010.9
20180717191600 68 291 0.0 3.0 0.00 0.02 0.02 90 1010.8
20180717190059 68 9 0.0 1.0 0.00 0.02 0.02 90 1010.9
20180717184555 68 355 0.0 3.0 0.00 0.02 0.02 89 1010.9
20180717183058 69 355 1.0 4.0 0.00 0.02 0.02 88 1010.9
20180717181556 69 292 0.0 2.0 0.00 0.02 0.02 89 1010.8
20180717180056 69 360 1.0 5.0 0.00 0.02 0.02 88 1010.9
20180717174553 70 288 1.0 3.0 0.00 0.02 0.02 88 1010.9
20180717173056 70 291 1.0 6.0 0.00 0.02 0.02 86 1010.9
20180717171554 71 309 0.0 3.0 0.00 0.02 0.02 83 1010.9
20180717170053 72 22 1.0 4.0 0.00 0.02 0.02 82 1010.9
20180717164555 72 348 1.0 4.0 0.00 0.02 0.02 82 1010.9
20180717163052 72 319 0.0 5.0 0.00 0.02 0.02 83 1011.0
20180717161553 72 309 1.0 5.0 0.00 0.02 0.02 83 1011.0
20180717160049 72 302 1.0 4.0 0.00 0.02 0.02 83 1011.0
20180717154554 71 338 1.0 4.0 0.00 0.02 0.02 84 1011.1
20180717153051 71 340 1.0 5.0 0.00 0.02 0.02 84 1011.2
20180717151548 71 16 2.0 3.0 0.00 0.02 0.02 84 1011.3
20180717150048 71 66 1.0 7.0 0.00 0.02 0.02 83 1011.4
20180717144549 71 355 1.0 6.0 0.00 0.02 0.02 82 1011.4
20180717143051 72 46 1.0 4.0 0.00 0.02 0.02 82 1011.3
20180717141548 72 355 1.0 4.0 0.00 0.02 0.02 83 1011.3
20180717140049 73 5 1.0 5.0 0.00 0.02 0.02 81 1011.3
20180717134550 74 355 1.0 5.0 0.00 0.02 0.02 76 1011.2
20180717133046 74 298 1.0 7.0 0.00 0.02 0.02 76 1011.3
20180717131549 75 57 3.0 8.0 0.00 0.02 0.02 75 1011.3
20180717130044 75 9 2.0 8.0 0.00 0.02 0.02 75 1011.3
20180717124544 75 35 2.0 7.0 0.00 0.02 0.02 76 1011.3
20180717123043 74 5 1.0 6.0 0.00 0.02 0.02 77 1011.2
20180717121545 74 30 3.0 8.0 0.00 0.02 0.02 76 1011.3
20180717120048 73 68 2.0 7.0 0.00 0.02 0.02 80 1011.2
20180717114542 73 13 3.0 9.0 0.00 0.02 0.02 79 1011.2
20180717113041 74 349 2.0 8.0 0.00 0.02 0.02 77 1011.3
20180717111542 74 288 1.0 4.0 0.00 0.02 0.02 79 1011.3
20180717110042 73 321 1.0 4.0 0.00 0.02 0.02 80 1011.3
20180717104540 74 355 1.0 6.0 0.00 0.02 0.02 79 1011.2
20180717103041 73 304 1.0 6.0 0.00 0.02 0.02 79 1011.3
20180717101540 73 294 1.0 5.0 0.00 0.02 0.02 79 1011.2
20180717100039 72 360 1.0 5.0 0.00 0.02 0.02 81 1011.2
20180717094539 74 318 2.0 9.0 0.00 0.02 0.02 76 1011.2
20180717093042 75 5 3.0 7.0 0.00 0.02 0.02 73 1011.2
20180717091536 75 305 1.0 6.0 0.00 0.02 0.02 78 1011.1
20180717090034 72 326 2.0 7.0 0.00 0.02 0.02 80 1011.2
20180717084532 71 355 1.0 3.0 0.00 0.02 0.02 85 1011.2
20180717083023 69 34 1.0 4.0 0.01 0.02 0.02 92 1011.2
20180717081521 68 293 0.0 3.0 0.01 0.02 0.02 97 1011.2
20180717080016 67 80 0.0 0.0 0.02 0.02 0.02 97 1011.2
20180717074511 66 80 0.0 1.0 0.02 0.02 0.02 95 1011.3
20180717073010 67 80 0.0 2.0 0.01 0.01 0.01 94 1011.4
20180717071510 67 31 0.0 3.0 0.00 0.00 0.00 94 1011.4
20180717070010 68 55 1.0 2.0 0.00 0.00 0.00 95 1011.6
20180717064509 67 5 0.0 2.0 0.00 0.00 0.00 96 1011.5